Year,Month,Day,Hour,Minute,Value (Times are PST for temperature in C)
2018,07,15,00,00,16.80
2018,07,15,00,01,16.80
2018,07,15,00,02,16.80
2018,07,15,00,03,16.70
2018,07,15,00,04,16.70
2018,07,15,00,05,16.70
2018,07,15,00,06,16.70
2018,07,15,00,07,16.70
2018,07,15,00,08,16.70
2018,07,15,00,09,16.60
2018,07,15,00,10,16.60
2018,07,15,00,11,16.60
2018,07,15,00,12,16.60
2018,07,15,00,13,16.60
2018,07,15,00,14,16.60
2018,07,15,00,15,16.50
2018,07,15,00,16,16.50
2018,07,15,00,17,16.40
2018,07,15,00,18,16.40
2018,07,15,00,19,16.40
2018,07,15,00,20,16.30
2018,07,15,00,21,16.30
2018,07,15,00,22,16.30
2018,07,15,00,23,16.30
2018,07,15,00,24,16.30
2018,07,15,00,25,16.30
2018,07,15,00,26,16.30
2018,07,15,00,27,16.20
2018,07,15,00,28,16.20
2018,07,15,00,29,16.20
2018,07,15,00,30,16.20
2018,07,15,00,31,16.20
2018,07,15,00,32,16.20
2018,07,15,00,33,16.20
2018,07,15,00,34,16.10
2018,07,15,00,35,16.10
2018,07,15,00,36,16.10
2018,07,15,00,37,16.10
2018,07,15,00,38,16.10
2018,07,15,00,39,16.10
2018,07,15,00,40,16.00
2018,07,15,00,41,16.00
2018,07,15,00,42,16.00
2018,07,15,00,43,15.90
2018,07,15,00,44,15.90
2018,07,15,00,45,15.90
2018,07,15,00,46,15.90
2018,07,15,00,47,15.90
2018,07,15,00,48,15.80
2018,07,15,00,49,15.80
2018,07,15,00,50,15.80
2018,07,15,00,51,15.80
2018,07,15,00,52,15.80
2018,07,15,00,53,15.80
2018,07,15,00,54,15.70
2018,07,15,00,55,15.70
2018,07,15,00,56,15.70
2018,07,15,00,57,15.70
2018,07,15,00,58,15.70
2018,07,15,00,59,15.70
2018,07,15,01,00,15.70
2018,07,15,01,01,15.70
2018,07,15,01,02,15.70
2018,07,15,01,03,15.70
2018,07,15,01,04,15.70
2018,07,15,01,05,15.60
2018,07,15,01,06,15.60
2018,07,15,01,07,15.60
2018,07,15,01,08,15.60
2018,07,15,01,09,15.60
2018,07,15,01,10,15.60
2018,07,15,01,11,15.50
2018,07,15,01,12,15.50
2018,07,15,01,13,15.50
2018,07,15,01,14,15.50
2018,07,15,01,15,15.40
2018,07,15,01,16,15.40
2018,07,15,01,17,15.40
2018,07,15,01,18,15.40
2018,07,15,01,19,15.40
2018,07,15,01,20,15.30
2018,07,15,01,21,15.30
2018,07,15,01,22,15.30
2018,07,15,01,23,15.30
2018,07,15,01,24,15.30
2018,07,15,01,25,15.30
2018,07,15,01,26,15.30
2018,07,15,01,27,15.30
2018,07,15,01,28,15.30
2018,07,15,01,29,15.30
2018,07,15,01,30,15.30
2018,07,15,01,31,15.20
2018,07,15,01,32,15.20
2018,07,15,01,33,15.20
2018,07,15,01,34,15.20
2018,07,15,01,35,15.20
2018,07,15,01,36,15.20
2018,07,15,01,37,15.20
2018,07,15,01,38,15.20
2018,07,15,01,39,15.20
2018,07,15,01,40,15.10
2018,07,15,01,41,15.10
2018,07,15,01,42,15.10
2018,07,15,01,43,15.10
2018,07,15,01,44,15.10
2018,07,15,01,45,15.10
2018,07,15,01,46,15.00
2018,07,15,01,47,15.00
2018,07,15,01,48,15.00
2018,07,15,01,49,15.00
2018,07,15,01,50,15.00
2018,07,15,01,51,15.00
2018,07,15,01,52,15.00
2018,07,15,01,53,15.10
2018,07,15,01,54,15.10
2018,07,15,01,55,15.10
2018,07,15,01,56,15.10
2018,07,15,01,57,15.10
2018,07,15,01,58,15.10
2018,07,15,01,59,15.10
2018,07,15,02,00,15.00
2018,07,15,02,01,15.00
2018,07,15,02,02,15.00
2018,07,15,02,03,14.90
2018,07,15,02,04,14.90
2018,07,15,02,05,14.90
2018,07,15,02,06,14.90
2018,07,15,02,07,14.80
2018,07,15,02,08,14.80
2018,07,15,02,09,14.80
2018,07,15,02,10,14.80
2018,07,15,02,11,14.80
2018,07,15,02,12,14.80
2018,07,15,02,13,14.80
2018,07,15,02,14,14.80
2018,07,15,02,15,14.80
2018,07,15,02,16,14.80
2018,07,15,02,17,14.80
2018,07,15,02,18,14.70
2018,07,15,02,19,14.70
2018,07,15,02,20,14.70
2018,07,15,02,21,14.70
2018,07,15,02,22,14.70
2018,07,15,02,23,14.70
2018,07,15,02,24,14.70
2018,07,15,02,25,14.60
2018,07,15,02,26,14.60
2018,07,15,02,27,14.60
2018,07,15,02,28,14.60
2018,07,15,02,29,14.60
2018,07,15,02,30,14.60
2018,07,15,02,31,14.60
2018,07,15,02,32,14.60
2018,07,15,02,33,14.60
2018,07,15,02,34,14.50
2018,07,15,02,35,14.50
2018,07,15,02,36,14.50
2018,07,15,02,37,14.50
2018,07,15,02,38,14.50
2018,07,15,02,39,14.50
2018,07,15,02,40,14.50
2018,07,15,02,41,14.40
2018,07,15,02,42,14.40
2018,07,15,02,43,14.40
2018,07,15,02,44,14.40
2018,07,15,02,45,14.40
2018,07,15,02,46,14.40
2018,07,15,02,47,14.40
2018,07,15,02,48,14.40
2018,07,15,02,49,14.30
2018,07,15,02,50,14.30
2018,07,15,02,51,14.30
2018,07,15,02,52,14.30
2018,07,15,02,53,14.30
2018,07,15,02,54,14.30
2018,07,15,02,55,14.20
2018,07,15,02,56,14.20
2018,07,15,02,57,14.20
2018,07,15,02,58,14.10
2018,07,15,02,59,14.10
2018,07,15,03,00,14.10
2018,07,15,03,01,14.00
2018,07,15,03,02,14.00
2018,07,15,03,03,13.90
2018,07,15,03,04,13.90
2018,07,15,03,05,13.90
2018,07,15,03,06,13.90
2018,07,15,03,07,13.90
2018,07,15,03,08,13.90
2018,07,15,03,09,13.90
2018,07,15,03,10,13.90
2018,07,15,03,11,13.90
2018,07,15,03,12,13.80
2018,07,15,03,13,13.80
2018,07,15,03,14,13.80
2018,07,15,03,15,13.80
2018,07,15,03,16,13.80
2018,07,15,03,17,13.80
2018,07,15,03,18,13.80
2018,07,15,03,19,13.80
2018,07,15,03,20,13.80
2018,07,15,03,21,13.80
2018,07,15,03,22,13.80
2018,07,15,03,23,13.80
2018,07,15,03,24,13.80
2018,07,15,03,25,13.80
2018,07,15,03,26,13.80
2018,07,15,03,27,13.80
2018,07,15,03,28,13.80
2018,07,15,03,29,13.80
2018,07,15,03,30,13.80
2018,07,15,03,31,13.70
2018,07,15,03,32,13.70
2018,07,15,03,33,13.70
2018,07,15,03,34,13.70
2018,07,15,03,35,13.70
2018,07,15,03,36,13.70
2018,07,15,03,37,13.70
2018,07,15,03,38,13.70
2018,07,15,03,39,13.70
2018,07,15,03,40,13.70
2018,07,15,03,41,13.70
2018,07,15,03,42,13.70
2018,07,15,03,43,13.70
2018,07,15,03,44,13.70
2018,07,15,03,45,13.70
2018,07,15,03,46,13.70
2018,07,15,03,47,13.70
2018,07,15,03,48,13.70
2018,07,15,03,49,13.70
2018,07,15,03,50,13.60
2018,07,15,03,51,13.60
2018,07,15,03,52,13.60
2018,07,15,03,53,13.60
2018,07,15,03,54,13.60
2018,07,15,03,55,13.50
2018,07,15,03,56,13.50
2018,07,15,03,57,13.50
2018,07,15,03,58,13.50
2018,07,15,03,59,13.50
2018,07,15,04,00,13.50
2018,07,15,04,01,13.50
2018,07,15,04,02,13.50
2018,07,15,04,03,13.50
2018,07,15,04,04,13.50
2018,07,15,04,05,13.50
2018,07,15,04,06,13.50
2018,07,15,04,07,13.50
2018,07,15,04,08,13.50
2018,07,15,04,09,13.50
2018,07,15,04,10,13.40
2018,07,15,04,11,13.40
2018,07,15,04,12,13.40
2018,07,15,04,13,13.40
2018,07,15,04,14,13.40
2018,07,15,04,15,13.40
2018,07,15,04,16,13.40
2018,07,15,04,17,13.30
2018,07,15,04,18,13.30
2018,07,15,04,19,13.30
2018,07,15,04,20,13.30
2018,07,15,04,21,13.30
2018,07,15,04,22,13.30
2018,07,15,04,23,13.30
2018,07,15,04,24,13.20
2018,07,15,04,25,13.20
2018,07,15,04,26,13.20
2018,07,15,04,27,13.20
2018,07,15,04,28,13.20
2018,07,15,04,29,13.20
2018,07,15,04,30,13.20
2018,07,15,04,31,13.20
2018,07,15,04,32,13.20
2018,07,15,04,33,13.20
2018,07,15,04,34,13.10
2018,07,15,04,35,13.10
2018,07,15,04,36,13.10
2018,07,15,04,37,13.10
2018,07,15,04,38,13.10
2018,07,15,04,39,13.00
2018,07,15,04,40,13.00
2018,07,15,04,41,13.00
2018,07,15,04,42,12.90
2018,07,15,04,43,12.90
2018,07,15,04,44,12.90
2018,07,15,04,45,12.90
2018,07,15,04,46,12.90
2018,07,15,04,47,12.90
2018,07,15,04,48,12.90
2018,07,15,04,49,12.90
2018,07,15,04,50,12.90
2018,07,15,04,51,12.90
2018,07,15,04,52,12.90
2018,07,15,04,53,12.90
2018,07,15,04,54,12.90
2018,07,15,04,55,12.90
2018,07,15,04,56,12.80
2018,07,15,04,57,12.90
2018,07,15,04,58,12.80
2018,07,15,04,59,12.80
2018,07,15,05,00,12.80
2018,07,15,05,01,12.80
2018,07,15,05,02,12.70
2018,07,15,05,03,12.70
2018,07,15,05,04,12.70
2018,07,15,05,05,12.70
2018,07,15,05,06,12.70
2018,07,15,05,07,12.70
2018,07,15,05,08,12.70
2018,07,15,05,09,12.70
2018,07,15,05,10,12.70
2018,07,15,05,11,12.70
2018,07,15,05,12,12.60
2018,07,15,05,13,12.60
2018,07,15,05,14,12.60
2018,07,15,05,15,12.60
2018,07,15,05,16,12.60
2018,07,15,05,17,12.60
2018,07,15,05,18,12.60
2018,07,15,05,19,12.70
2018,07,15,05,20,12.70
2018,07,15,05,21,12.60
2018,07,15,05,22,12.60
2018,07,15,05,23,12.70
2018,07,15,05,24,12.70
2018,07,15,05,25,12.60
2018,07,15,05,26,12.60
2018,07,15,05,27,12.60
2018,07,15,05,28,12.60
2018,07,15,05,29,12.60
2018,07,15,05,30,12.60
2018,07,15,05,31,12.60
2018,07,15,05,32,12.60
2018,07,15,05,33,12.60
2018,07,15,05,34,12.50
2018,07,15,05,35,12.50
2018,07,15,05,36,12.50
2018,07,15,05,37,12.50
2018,07,15,05,38,12.50
2018,07,15,05,39,12.50
2018,07,15,05,40,12.60
2018,07,15,05,41,12.50
2018,07,15,05,42,12.60
2018,07,15,05,43,12.50
2018,07,15,05,44,12.50
2018,07,15,05,45,12.50
2018,07,15,05,46,12.50
2018,07,15,05,47,12.50
2018,07,15,05,48,12.50
2018,07,15,05,49,12.50
2018,07,15,05,50,12.50
2018,07,15,05,51,12.50
2018,07,15,05,52,12.50
2018,07,15,05,53,12.50
2018,07,15,05,54,12.50
2018,07,15,05,55,12.50
2018,07,15,05,56,12.50
2018,07,15,05,57,12.50
2018,07,15,05,58,12.50
2018,07,15,05,59,12.60
2018,07,15,06,00,12.60
2018,07,15,06,01,12.60
2018,07,15,06,02,12.60
2018,07,15,06,03,12.60
2018,07,15,06,04,12.60
2018,07,15,06,05,12.60
2018,07,15,06,06,12.60
2018,07,15,06,07,12.60
2018,07,15,06,08,12.70
2018,07,15,06,09,12.70
2018,07,15,06,10,12.70
2018,07,15,06,11,12.70
2018,07,15,06,12,12.70
2018,07,15,06,13,12.70
2018,07,15,06,14,12.70
2018,07,15,06,15,12.80
2018,07,15,06,16,12.80
2018,07,15,06,17,12.90
2018,07,15,06,18,12.90
2018,07,15,06,19,13.00
2018,07,15,06,20,13.00
2018,07,15,06,21,13.10
2018,07,15,06,22,13.20
2018,07,15,06,23,13.20
2018,07,15,06,24,13.30
2018,07,15,06,25,13.40
2018,07,15,06,26,13.40
2018,07,15,06,27,13.50
2018,07,15,06,28,13.60
2018,07,15,06,29,13.70
2018,07,15,06,30,13.80
2018,07,15,06,31,13.90
2018,07,15,06,32,13.90
2018,07,15,06,33,14.00
2018,07,15,06,34,14.10
2018,07,15,06,35,14.20
2018,07,15,06,36,14.20
2018,07,15,06,37,14.30
2018,07,15,06,38,14.30
2018,07,15,06,39,14.30
2018,07,15,06,40,14.40
2018,07,15,06,41,14.40
2018,07,15,06,42,14.40
2018,07,15,06,43,14.50
2018,07,15,06,44,14.50
2018,07,15,06,45,14.60
2018,07,15,06,46,14.60
2018,07,15,06,47,14.70
2018,07,15,06,48,14.80
2018,07,15,06,49,14.80
2018,07,15,06,50,14.80
2018,07,15,06,51,14.80
2018,07,15,06,52,14.90
2018,07,15,06,53,14.90
2018,07,15,06,54,14.90
2018,07,15,06,55,14.90
2018,07,15,06,56,14.90
2018,07,15,06,57,15.00
2018,07,15,06,58,15.10
2018,07,15,06,59,15.10
2018,07,15,07,00,15.20
2018,07,15,07,01,15.30
2018,07,15,07,02,15.30
2018,07,15,07,03,15.40
2018,07,15,07,04,15.40
2018,07,15,07,05,15.50
2018,07,15,07,06,15.50
2018,07,15,07,07,15.60
2018,07,15,07,08,15.60
2018,07,15,07,09,15.60
2018,07,15,07,10,15.70
2018,07,15,07,11,15.70
2018,07,15,07,12,15.70
2018,07,15,07,13,15.80
2018,07,15,07,14,15.80
2018,07,15,07,15,15.90
2018,07,15,07,16,15.90
2018,07,15,07,17,16.00
2018,07,15,07,18,16.10
2018,07,15,07,19,16.30
2018,07,15,07,20,16.40
2018,07,15,07,21,16.60
2018,07,15,07,22,16.70
2018,07,15,07,23,16.80
2018,07,15,07,24,16.80
2018,07,15,07,25,16.90
2018,07,15,07,26,16.90
2018,07,15,07,27,17.00
2018,07,15,07,28,17.10
2018,07,15,07,29,17.10
2018,07,15,07,30,17.20
2018,07,15,07,31,17.20
2018,07,15,07,32,17.30
2018,07,15,07,33,17.30
2018,07,15,07,34,17.30
2018,07,15,07,35,17.40
2018,07,15,07,36,17.40
2018,07,15,07,37,17.50
2018,07,15,07,38,17.50
2018,07,15,07,39,17.60
2018,07,15,07,40,17.60
2018,07,15,07,41,17.70
2018,07,15,07,42,17.70
2018,07,15,07,43,17.80
2018,07,15,07,44,17.80
2018,07,15,07,45,17.90
2018,07,15,07,46,18.00
2018,07,15,07,47,18.00
2018,07,15,07,48,18.10
2018,07,15,07,49,18.10
2018,07,15,07,50,18.20
2018,07,15,07,51,18.30
2018,07,15,07,52,18.30
2018,07,15,07,53,18.40
2018,07,15,07,54,18.40
2018,07,15,07,55,18.50
2018,07,15,07,56,18.50
2018,07,15,07,57,18.60
2018,07,15,07,58,18.60
2018,07,15,07,59,18.70
2018,07,15,08,00,18.70
2018,07,15,08,01,18.80
2018,07,15,08,02,18.80
2018,07,15,08,03,18.90
2018,07,15,08,04,18.90
2018,07,15,08,05,19.00
2018,07,15,08,06,19.10
2018,07,15,08,07,19.20
2018,07,15,08,08,19.30
2018,07,15,08,09,19.30
2018,07,15,08,10,19.40
2018,07,15,08,11,19.50
2018,07,15,08,12,19.60
2018,07,15,08,13,19.70
2018,07,15,08,14,19.70
2018,07,15,08,15,19.80
2018,07,15,08,16,19.80
2018,07,15,08,17,19.90
2018,07,15,08,18,20.00
2018,07,15,08,19,20.20
2018,07,15,08,20,20.20
2018,07,15,08,21,20.30
2018,07,15,08,22,20.40
2018,07,15,08,23,20.50
2018,07,15,08,24,20.70
2018,07,15,08,25,20.80
2018,07,15,08,26,20.90
2018,07,15,08,27,21.00
2018,07,15,08,28,21.10
2018,07,15,08,29,21.10
2018,07,15,08,30,21.10
2018,07,15,08,31,21.20
2018,07,15,08,32,21.20
2018,07,15,08,33,21.20
2018,07,15,08,34,21.30
2018,07,15,08,35,21.30
2018,07,15,08,36,21.40
2018,07,15,08,37,21.40
2018,07,15,08,38,21.40
2018,07,15,08,39,21.50
2018,07,15,08,40,21.50
2018,07,15,08,41,21.60
2018,07,15,08,42,21.60
2018,07,15,08,43,21.70
2018,07,15,08,44,21.70
2018,07,15,08,45,21.70
2018,07,15,08,46,21.70
2018,07,15,08,47,21.70
2018,07,15,08,48,21.70
2018,07,15,08,49,21.70
2018,07,15,08,50,21.70
2018,07,15,08,51,21.80
2018,07,15,08,52,21.80
2018,07,15,08,53,21.80
2018,07,15,08,54,21.90
2018,07,15,08,55,21.90
2018,07,15,08,56,21.90
2018,07,15,08,57,21.90
2018,07,15,08,58,22.00
2018,07,15,08,59,22.00
2018,07,15,09,00,22.10
2018,07,15,09,01,22.20
2018,07,15,09,02,22.30
2018,07,15,09,03,22.30
2018,07,15,09,04,22.40
2018,07,15,09,05,22.40
2018,07,15,09,06,22.40
2018,07,15,09,07,22.40
2018,07,15,09,08,22.40
2018,07,15,09,09,22.40
2018,07,15,09,10,22.30
2018,07,15,09,11,22.30
2018,07,15,09,12,22.40
2018,07,15,09,13,22.40
2018,07,15,09,14,22.50
2018,07,15,09,15,22.50
2018,07,15,09,16,22.50
2018,07,15,09,17,22.60
2018,07,15,09,18,22.70
2018,07,15,09,19,22.70
2018,07,15,09,20,22.70
2018,07,15,09,21,22.80
2018,07,15,09,22,22.80
2018,07,15,09,23,22.80
2018,07,15,09,24,22.80
2018,07,15,09,25,22.90
2018,07,15,09,26,22.90
2018,07,15,09,27,22.90
2018,07,15,09,28,22.90
2018,07,15,09,29,23.00
2018,07,15,09,30,23.00
2018,07,15,09,31,23.10
2018,07,15,09,32,23.10
2018,07,15,09,33,23.20
2018,07,15,09,34,23.20
2018,07,15,09,35,23.30
2018,07,15,09,36,23.30
2018,07,15,09,37,23.30
2018,07,15,09,38,23.30
2018,07,15,09,39,23.30
2018,07,15,09,40,23.20
2018,07,15,09,41,23.30
2018,07,15,09,42,23.30
2018,07,15,09,43,23.40
2018,07,15,09,44,23.40
2018,07,15,09,45,23.40
2018,07,15,09,46,23.40
2018,07,15,09,47,23.30
2018,07,15,09,48,23.30
2018,07,15,09,49,23.40
2018,07,15,09,50,23.40
2018,07,15,09,51,23.40
2018,07,15,09,52,23.40
2018,07,15,09,53,23.40
2018,07,15,09,54,23.50
2018,07,15,09,55,23.50
2018,07,15,09,56,23.50
2018,07,15,09,57,23.60
2018,07,15,09,58,23.70
2018,07,15,09,59,23.70
2018,07,15,10,00,23.80
2018,07,15,10,01,23.80
2018,07,15,10,02,23.90
2018,07,15,10,03,23.90
2018,07,15,10,04,23.90
2018,07,15,10,05,23.80
2018,07,15,10,06,23.80
2018,07,15,10,07,23.80
2018,07,15,10,08,23.80
2018,07,15,10,09,23.90
2018,07,15,10,10,23.90
2018,07,15,10,11,23.90
2018,07,15,10,12,23.90
2018,07,15,10,13,23.90
2018,07,15,10,14,23.90
2018,07,15,10,15,24.00
2018,07,15,10,16,24.00
2018,07,15,10,17,24.00
2018,07,15,10,18,24.00
2018,07,15,10,19,24.10
2018,07,15,10,20,24.10
2018,07,15,10,21,24.20
2018,07,15,10,22,24.20
2018,07,15,10,23,24.30
2018,07,15,10,24,24.30
2018,07,15,10,25,24.40
2018,07,15,10,26,24.50
2018,07,15,10,27,24.50
2018,07,15,10,28,24.50
2018,07,15,10,29,24.50
2018,07,15,10,30,24.50
2018,07,15,10,31,24.50
2018,07,15,10,32,24.50
2018,07,15,10,33,24.40
2018,07,15,10,34,24.40
2018,07,15,10,35,24.40
2018,07,15,10,36,24.30
2018,07,15,10,37,24.30
2018,07,15,10,38,24.20
2018,07,15,10,39,24.20
2018,07,15,10,40,24.10
2018,07,15,10,41,24.10
2018,07,15,10,42,24.10
2018,07,15,10,43,24.10
2018,07,15,10,44,24.10
2018,07,15,10,45,24.20
2018,07,15,10,46,24.30
2018,07,15,10,47,24.30
2018,07,15,10,48,24.30
2018,07,15,10,49,24.30
2018,07,15,10,50,24.20
2018,07,15,10,51,24.20
2018,07,15,10,52,24.20
2018,07,15,10,53,24.20
2018,07,15,10,54,24.20
2018,07,15,10,55,24.20
2018,07,15,10,56,24.20
2018,07,15,10,57,24.20
2018,07,15,10,58,24.10
2018,07,15,10,59,24.10
2018,07,15,11,00,24.10
2018,07,15,11,01,24.20
2018,07,15,11,02,24.20
2018,07,15,11,03,24.30
2018,07,15,11,04,24.30
2018,07,15,11,05,24.30
2018,07,15,11,06,24.40
2018,07,15,11,07,24.40
2018,07,15,11,08,24.60
2018,07,15,11,09,24.60
2018,07,15,11,10,24.70
2018,07,15,11,11,24.70
2018,07,15,11,12,24.70
2018,07,15,11,13,24.70
2018,07,15,11,14,24.70
2018,07,15,11,15,24.80
2018,07,15,11,16,24.90
2018,07,15,11,17,24.90
2018,07,15,11,18,25.00
2018,07,15,11,19,25.10
2018,07,15,11,20,25.10
2018,07,15,11,21,25.00
2018,07,15,11,22,25.00
2018,07,15,11,23,25.00
2018,07,15,11,24,24.90
2018,07,15,11,25,24.90
2018,07,15,11,26,24.90
2018,07,15,11,27,24.90
2018,07,15,11,28,24.90
2018,07,15,11,29,24.90
2018,07,15,11,30,24.90
2018,07,15,11,31,24.90
2018,07,15,11,32,24.90
2018,07,15,11,33,24.90
2018,07,15,11,34,24.90
2018,07,15,11,35,24.90
2018,07,15,11,36,24.90
2018,07,15,11,37,24.90
2018,07,15,11,38,24.90
2018,07,15,11,39,24.90
2018,07,15,11,40,24.90
2018,07,15,11,41,24.90
2018,07,15,11,42,24.90
2018,07,15,11,43,25.00
2018,07,15,11,44,25.10
2018,07,15,11,45,25.10
2018,07,15,11,46,25.20
2018,07,15,11,47,25.30
2018,07,15,11,48,25.40
2018,07,15,11,49,25.40
2018,07,15,11,50,25.40
2018,07,15,11,51,25.40
2018,07,15,11,52,25.30
2018,07,15,11,53,25.30
2018,07,15,11,54,25.30
2018,07,15,11,55,25.20
2018,07,15,11,56,25.20
2018,07,15,11,57,25.30
2018,07,15,11,58,25.40
2018,07,15,11,59,25.40
2018,07,15,12,00,25.40
2018,07,15,12,01,25.40
2018,07,15,12,02,25.40
2018,07,15,12,03,25.50
2018,07,15,12,04,25.50
2018,07,15,12,05,25.60
2018,07,15,12,06,25.70
2018,07,15,12,07,25.70
2018,07,15,12,08,25.70
2018,07,15,12,09,25.70
2018,07,15,12,10,25.60
2018,07,15,12,11,25.60
2018,07,15,12,12,25.60
2018,07,15,12,13,25.60
2018,07,15,12,14,25.60
2018,07,15,12,15,25.60
2018,07,15,12,16,25.70
2018,07,15,12,17,25.80
2018,07,15,12,18,25.80
2018,07,15,12,19,25.80
2018,07,15,12,20,25.80
2018,07,15,12,21,25.80
2018,07,15,12,22,25.80
2018,07,15,12,23,25.80
2018,07,15,12,24,25.80
2018,07,15,12,25,25.90
2018,07,15,12,26,26.00
2018,07,15,12,27,26.00
2018,07,15,12,28,26.10
2018,07,15,12,29,26.10
2018,07,15,12,30,26.10
2018,07,15,12,31,26.20
2018,07,15,12,32,26.30
2018,07,15,12,33,26.30
2018,07,15,12,34,26.30
2018,07,15,12,35,26.30
2018,07,15,12,36,26.40
2018,07,15,12,37,26.50
2018,07,15,12,38,26.60
2018,07,15,12,39,26.60
2018,07,15,12,40,26.50
2018,07,15,12,41,26.40
2018,07,15,12,42,26.40
2018,07,15,12,43,26.40
2018,07,15,12,44,26.40
2018,07,15,12,45,26.40
2018,07,15,12,46,26.40
2018,07,15,12,47,26.40
2018,07,15,12,48,26.40
2018,07,15,12,49,26.40
2018,07,15,12,50,26.40
2018,07,15,12,51,26.30
2018,07,15,12,52,26.30
2018,07,15,12,53,26.30
2018,07,15,12,54,26.20
2018,07,15,12,55,26.20
2018,07,15,12,56,26.20
2018,07,15,12,57,26.30
2018,07,15,12,58,26.30
2018,07,15,12,59,26.40
2018,07,15,13,00,26.50
2018,07,15,13,01,26.60
2018,07,15,13,02,26.60
2018,07,15,13,03,26.60
2018,07,15,13,04,26.60
2018,07,15,13,05,26.60
2018,07,15,13,06,26.60
2018,07,15,13,07,26.60
2018,07,15,13,08,26.70
2018,07,15,13,09,26.70
2018,07,15,13,10,26.80
2018,07,15,13,11,26.80
2018,07,15,13,12,26.80
2018,07,15,13,13,26.70
2018,07,15,13,14,26.70
2018,07,15,13,15,26.80
2018,07,15,13,16,26.80
2018,07,15,13,17,26.90
2018,07,15,13,18,26.90
2018,07,15,13,19,26.90
2018,07,15,13,20,26.90
2018,07,15,13,21,26.90
2018,07,15,13,22,26.90
2018,07,15,13,23,27.00
2018,07,15,13,24,27.00
2018,07,15,13,25,27.10
2018,07,15,13,26,27.00
2018,07,15,13,27,27.00
2018,07,15,13,28,27.00
2018,07,15,13,29,27.10
2018,07,15,13,30,27.10
2018,07,15,13,31,27.10
2018,07,15,13,32,27.10
2018,07,15,13,33,27.10
2018,07,15,13,34,27.10
2018,07,15,13,35,27.00
2018,07,15,13,36,26.90
2018,07,15,13,37,26.90
2018,07,15,13,38,26.90
2018,07,15,13,39,26.90
2018,07,15,13,40,26.90
2018,07,15,13,41,26.90
2018,07,15,13,42,27.00
2018,07,15,13,43,27.00
2018,07,15,13,44,27.00
2018,07,15,13,45,27.00
2018,07,15,13,46,27.10
2018,07,15,13,47,27.10
2018,07,15,13,48,27.00
2018,07,15,13,49,27.00
2018,07,15,13,50,27.00
2018,07,15,13,51,27.00
2018,07,15,13,52,26.90
2018,07,15,13,53,26.90
2018,07,15,13,54,26.80
2018,07,15,13,55,26.80
2018,07,15,13,56,26.70
2018,07,15,13,57,26.80
2018,07,15,13,58,26.90
2018,07,15,13,59,26.90
2018,07,15,14,00,27.00
2018,07,15,14,01,27.10
2018,07,15,14,02,27.20
2018,07,15,14,03,27.30
2018,07,15,14,04,27.40
2018,07,15,14,05,27.40
2018,07,15,14,06,27.30
2018,07,15,14,07,27.20
2018,07,15,14,08,27.10
2018,07,15,14,09,27.10
2018,07,15,14,10,27.00
2018,07,15,14,11,26.90
2018,07,15,14,12,26.90
2018,07,15,14,13,26.90
2018,07,15,14,14,26.90
2018,07,15,14,15,26.90
2018,07,15,14,16,26.90
2018,07,15,14,17,26.90
2018,07,15,14,18,26.90
2018,07,15,14,19,26.90
2018,07,15,14,20,26.90
2018,07,15,14,21,26.90
2018,07,15,14,22,26.90
2018,07,15,14,23,26.90
2018,07,15,14,24,26.80
2018,07,15,14,25,26.90
2018,07,15,14,26,26.90
2018,07,15,14,27,27.00
2018,07,15,14,28,27.00
2018,07,15,14,29,27.20
2018,07,15,14,30,27.20
2018,07,15,14,31,27.30
2018,07,15,14,32,27.30
2018,07,15,14,33,27.30
2018,07,15,14,34,27.30
2018,07,15,14,35,27.30
2018,07,15,14,36,27.30
2018,07,15,14,37,27.30
2018,07,15,14,38,27.30
2018,07,15,14,39,27.30
2018,07,15,14,40,27.30
2018,07,15,14,41,27.30
2018,07,15,14,42,27.30
2018,07,15,14,43,27.30
2018,07,15,14,44,27.30
2018,07,15,14,45,27.40
2018,07,15,14,46,27.50
2018,07,15,14,47,27.60
2018,07,15,14,48,27.70
2018,07,15,14,49,27.70
2018,07,15,14,50,27.70
2018,07,15,14,51,27.70
2018,07,15,14,52,27.60
2018,07,15,14,53,27.60
2018,07,15,14,54,27.60
2018,07,15,14,55,27.70
2018,07,15,14,56,27.80
2018,07,15,14,57,27.90
2018,07,15,14,58,27.90
2018,07,15,14,59,27.90
2018,07,15,15,00,27.90
2018,07,15,15,01,27.90
2018,07,15,15,02,27.80
2018,07,15,15,03,27.80
2018,07,15,15,04,27.80
2018,07,15,15,05,27.80
2018,07,15,15,06,27.70
2018,07,15,15,07,27.70
2018,07,15,15,08,27.70
2018,07,15,15,09,27.70
2018,07,15,15,10,27.80
2018,07,15,15,11,27.80
2018,07,15,15,12,27.80
2018,07,15,15,13,27.80
2018,07,15,15,14,27.80
2018,07,15,15,15,27.80
2018,07,15,15,16,27.80
2018,07,15,15,17,27.80
2018,07,15,15,18,27.90
2018,07,15,15,19,28.00
2018,07,15,15,20,28.00
2018,07,15,15,21,28.10
2018,07,15,15,22,28.20
2018,07,15,15,23,28.20
2018,07,15,15,24,28.30
2018,07,15,15,25,28.40
2018,07,15,15,26,28.50
2018,07,15,15,27,28.60
2018,07,15,15,28,28.60
2018,07,15,15,29,28.60
2018,07,15,15,30,28.70
2018,07,15,15,31,28.70
2018,07,15,15,32,28.70
2018,07,15,15,33,28.60
2018,07,15,15,34,28.60
2018,07,15,15,35,28.70
2018,07,15,15,36,28.70
2018,07,15,15,37,28.70
2018,07,15,15,38,28.80
2018,07,15,15,39,28.80
2018,07,15,15,40,28.80
2018,07,15,15,41,28.80
2018,07,15,15,42,28.70
2018,07,15,15,43,28.70
2018,07,15,15,44,28.60
2018,07,15,15,45,28.60
2018,07,15,15,46,28.70
2018,07,15,15,47,28.70
2018,07,15,15,48,28.70
2018,07,15,15,49,28.80
2018,07,15,15,50,28.80
2018,07,15,15,51,28.90
2018,07,15,15,52,28.90
2018,07,15,15,53,29.00
2018,07,15,15,54,29.10
2018,07,15,15,55,29.10
2018,07,15,15,56,29.10
2018,07,15,15,57,29.10
2018,07,15,15,58,29.00
2018,07,15,15,59,28.90
2018,07,15,16,00,28.90
2018,07,15,16,01,28.90
2018,07,15,16,02,28.90
2018,07,15,16,03,28.90
2018,07,15,16,04,29.00
2018,07,15,16,05,29.00
2018,07,15,16,06,29.10
2018,07,15,16,07,29.10
2018,07,15,16,08,29.10
2018,07,15,16,09,29.10
2018,07,15,16,10,29.10
2018,07,15,16,11,29.10
2018,07,15,16,12,29.20
2018,07,15,16,13,29.10
2018,07,15,16,14,29.10
2018,07,15,16,15,29.20
2018,07,15,16,16,29.20
2018,07,15,16,17,29.20
2018,07,15,16,18,29.20
2018,07,15,16,19,29.30
2018,07,15,16,20,29.30
2018,07,15,16,21,29.30
2018,07,15,16,22,29.30
2018,07,15,16,23,29.30
2018,07,15,16,24,29.30
2018,07,15,16,25,29.30
2018,07,15,16,26,29.30
2018,07,15,16,27,29.30
2018,07,15,16,28,29.30
2018,07,15,16,29,29.30
2018,07,15,16,30,29.30
2018,07,15,16,31,29.40
2018,07,15,16,32,29.40
2018,07,15,16,33,29.50
2018,07,15,16,34,29.60
2018,07,15,16,35,29.70
2018,07,15,16,36,29.80
2018,07,15,16,37,29.90
2018,07,15,16,38,29.90
2018,07,15,16,39,29.90
2018,07,15,16,40,29.90
2018,07,15,16,41,29.90
2018,07,15,16,42,29.80
2018,07,15,16,43,29.70
2018,07,15,16,44,29.50
2018,07,15,16,45,29.20
2018,07,15,16,46,28.90
2018,07,15,16,47,28.70
2018,07,15,16,48,28.50
2018,07,15,16,49,28.40
2018,07,15,16,50,28.30
2018,07,15,16,51,28.20
2018,07,15,16,52,28.10
2018,07,15,16,53,27.90
2018,07,15,16,54,27.80
2018,07,15,16,55,27.80
2018,07,15,16,56,27.70
2018,07,15,16,57,27.60
2018,07,15,16,58,27.50
2018,07,15,16,59,27.40
2018,07,15,17,00,27.40
2018,07,15,17,01,27.40
2018,07,15,17,02,27.40
2018,07,15,17,03,27.30
2018,07,15,17,04,27.30
2018,07,15,17,05,27.30
2018,07,15,17,06,27.30
2018,07,15,17,07,27.30
2018,07,15,17,08,27.30
2018,07,15,17,09,27.30
2018,07,15,17,10,27.30
2018,07,15,17,11,27.30
2018,07,15,17,12,27.40
2018,07,15,17,13,27.40
2018,07,15,17,14,27.40
2018,07,15,17,15,27.40
2018,07,15,17,16,27.40
2018,07,15,17,17,27.50
2018,07,15,17,18,27.50
2018,07,15,17,19,27.50